| time (UTC) | temp C | wind direction | speed KPH | gust KPH | rain 1hr cm | rain 24hr cm | rain mn cm | humidity % | barometer mb |
| 20260903113334 | 26 | 65 | 1.6 | 4.8 | 0.00 | 0.00 | 0.00 | 99 | 1014.4 |
| 20260903112834 | 26 | 72 | 1.6 | 4.8 | 0.00 | 0.00 | 0.00 | 100 | 1014.3 |
| 20260903112334 | 26 | 80 | 1.6 | 4.8 | 0.00 | 0.00 | 0.00 | 100 | 1014.2 |
| 20260903111804 | 26 | 81 | 1.6 | 4.8 | 0.00 | 0.00 | 0.00 | 100 | 1014.1 |
| 20260903110734 | 25 | 79 | 3.2 | 6.4 | 0.00 | 0.00 | 0.00 | 100 | 1013.9 |
| 20260903105937 | 26 | 78 | 3.2 | 6.4 | 0.00 | 0.00 | 0.00 | 100 | 1014.0 |
| 20260903105704 | 26 | 78 | 3.2 | 6.4 | 0.00 | 0.00 | 0.00 | 100 | 1014.0 |
| 20260903104840 | 26 | 79 | 3.2 | 11.3 | 0.00 | 0.00 | 0.00 | 100 | 1013.8 |
| 20260903104634 | 26 | 79 | 3.2 | 11.3 | 0.00 | 0.00 | 0.00 | 100 | 1013.8 |
| 20260903104338 | 26 | 83 | 3.2 | 11.3 | 0.00 | 0.00 | 0.00 | 100 | 1013.7 |
| 20260903104134 | 26 | 83 | 3.2 | 11.3 | 0.00 | 0.00 | 0.00 | 100 | 1013.7 |
| 20260903103604 | 26 | 80 | 3.2 | 9.7 | 0.00 | 0.00 | 0.00 | 100 | 1013.6 |
| 20260903102036 | 26 | 83 | 4.8 | 12.9 | 0.00 | 0.00 | 0.00 | 100 | 1013.6 |
| 20260903100934 | 26 | 90 | 4.8 | 9.7 | 0.00 | 0.00 | 0.00 | 99 | 1013.8 |
| 20260903100718 | 26 | 89 | 4.8 | 11.3 | 0.00 | 0.00 | 0.00 | 99 | 1013.7 |
| 20260903100434 | 26 | 89 | 4.8 | 11.3 | 0.00 | 0.00 | 0.00 | 99 | 1013.7 |
| 20260903095452 | 26 | 79 | 3.2 | 12.9 | 0.00 | 0.00 | 0.00 | 99 | 1013.7 |
| 20260903095224 | 26 | 79 | 3.2 | 12.9 | 0.00 | 0.00 | 0.00 | 99 | 1013.7 |
| 20260903094834 | 26 | 79 | 3.2 | 12.9 | 0.00 | 0.00 | 0.00 | 99 | 1013.7 |
| 20260903093804 | 26 | 92 | 6.4 | 12.9 | 0.00 | 0.00 | 0.00 | 99 | 1013.8 |
| 20260903093702 | 26 | 80 | 3.2 | 12.9 | 0.00 | 0.00 | 0.00 | 97 | 1014.1 |
| 20260903093657 | 26 | 85 | 3.2 | 9.7 | 0.00 | 0.00 | 0.00 | 97 | 1014.2 |
| 20260903093655 | 26 | 97 | 4.8 | 9.7 | 0.00 | 0.00 | 0.00 | 97 | 1014.1 |
| 20260903093648 | 26 | 102 | 6.4 | 11.3 | 0.00 | 0.00 | 0.00 | 97 | 1014.2 |
| 20260903093234 | 26 | 95 | 6.4 | 12.9 | 0.00 | 0.00 | 0.00 | 99 | 1013.8 |
| 20260903092514 | 26 | 90 | 6.4 | 12.9 | 0.00 | 0.00 | 0.00 | 99 | 1013.7 |
| 20260903092205 | 26 | 90 | 6.4 | 12.9 | 0.00 | 0.00 | 0.00 | 99 | 1013.7 |
| 20260903090947 | 26 | 89 | 6.4 | 12.9 | 0.00 | 0.00 | 0.00 | 99 | 1013.6 |
| 20260903090634 | 26 | 89 | 6.4 | 12.9 | 0.00 | 0.00 | 0.00 | 99 | 1013.6 |
| 20260903090351 | 26 | 90 | 6.4 | 12.9 | 0.00 | 0.00 | 0.00 | 99 | 1013.6 |
| 20260903090104 | 26 | 90 | 6.4 | 12.9 | 0.00 | 0.00 | 0.00 | 99 | 1013.6 |
| 20260903085603 | 26 | 90 | 4.8 | 11.3 | 0.00 | 0.00 | 0.00 | 99 | 1013.5 |
| 20260903084222 | 25 | 105 | 3.2 | 6.4 | 0.00 | 0.00 | 0.00 | 99 | 1013.5 |
| 20260903083934 | 25 | 105 | 3.2 | 6.4 | 0.00 | 0.00 | 0.00 | 99 | 1013.5 |
| 20260903083151 | 26 | 97 | 4.8 | 9.7 | 0.00 | 0.00 | 0.00 | 99 | 1013.5 |
| 20260903082904 | 26 | 97 | 4.8 | 9.7 | 0.00 | 0.00 | 0.00 | 99 | 1013.5 |
| 20260903082630 | 26 | 92 | 4.8 | 11.3 | 0.00 | 0.00 | 0.00 | 99 | 1013.4 |
| 20260903082404 | 26 | 92 | 4.8 | 11.3 | 0.00 | 0.00 | 0.00 | 99 | 1013.4 |
| 20260903082126 | 26 | 86 | 3.2 | 11.3 | 0.00 | 0.00 | 0.00 | 99 | 1013.5 |
| 20260903081904 | 26 | 86 | 3.2 | 11.3 | 0.00 | 0.00 | 0.00 | 99 | 1013.5 |
| 20260903081334 | 26 | 89 | 3.2 | 6.4 | 0.00 | 0.00 | 0.00 | 99 | 1013.5 |
| 20260903081040 | 26 | 90 | 3.2 | 6.4 | 0.00 | 0.00 | 0.00 | 99 | 1013.5 |
| 20260903080804 | 26 | 90 | 3.2 | 6.4 | 0.00 | 0.00 | 0.00 | 99 | 1013.5 |
| 20260903080036 | 26 | 96 | 4.8 | 11.3 | 0.00 | 0.00 | 0.00 | 99 | 1013.7 |
| 20260903075734 | 26 | 96 | 4.8 | 11.3 | 0.00 | 0.00 | 0.00 | 99 | 1013.7 |
| 20260903075508 | 26 | 87 | 3.2 | 11.3 | 0.00 | 0.00 | 0.00 | 99 | 1013.8 |
| 20260903075234 | 26 | 87 | 3.2 | 11.3 | 0.00 | 0.00 | 0.00 | 99 | 1013.8 |
| 20260903075004 | 26 | 84 | 3.2 | 11.3 | 0.00 | 0.00 | 0.00 | 99 | 1013.8 |
| 20260903074704 | 26 | 84 | 3.2 | 11.3 | 0.00 | 0.00 | 0.00 | 99 | 1013.8 |
| 20260903074446 | 26 | 81 | 1.6 | 4.8 | 0.00 | 0.00 | 0.00 | 99 | 1013.8 |
| 20260903074134 | 26 | 81 | 1.6 | 4.8 | 0.00 | 0.00 | 0.00 | 99 | 1013.8 |
| 20260903073634 | 26 | 80 | 1.6 | 3.2 | 0.00 | 0.00 | 0.00 | 98 | 1013.8 |
| 20260903072604 | 26 | 90 | 1.6 | 4.8 | 0.00 | 0.00 | 0.00 | 98 | 1014.0 |
| 20260903070706 | 26 | 84 | 1.6 | 4.8 | 0.00 | 0.00 | 0.00 | 98 | 1013.9 |
| 20260903070404 | 26 | 84 | 1.6 | 4.8 | 0.00 | 0.00 | 0.00 | 98 | 1013.9 |
| 20260903065646 | 26 | 81 | 1.6 | 4.8 | 0.00 | 0.00 | 0.00 | 97 | 1014.2 |
| 20260903065334 | 26 | 81 | 1.6 | 4.8 | 0.00 | 0.00 | 0.00 | 97 | 1014.2 |
| 20260903064834 | 26 | 81 | 3.2 | 6.4 | 0.00 | 0.00 | 0.00 | 97 | 1014.2 |
| 20260903064334 | 26 | 87 | 3.2 | 9.7 | 0.00 | 0.00 | 0.00 | 97 | 1014.2 |
| 20260903063804 | 26 | 88 | 3.2 | 9.7 | 0.00 | 0.00 | 0.00 | 97 | 1014.1 |
| 20260903063447 | 26 | 80 | 3.2 | 12.9 | 0.00 | 0.00 | 0.00 | 97 | 1014.1 |
| 20260903063235 | 26 | 80 | 3.2 | 12.9 | 0.00 | 0.00 | 0.00 | 97 | 1014.1 |
| 20260903061829 | 26 | 85 | 3.2 | 9.7 | 0.00 | 0.00 | 0.00 | 97 | 1014.2 |
| 20260903061634 | 26 | 85 | 3.2 | 9.7 | 0.00 | 0.00 | 0.00 | 97 | 1014.2 |
| 20260903061104 | 26 | 97 | 4.8 | 9.7 | 0.00 | 0.00 | 0.00 | 97 | 1014.1 |
| 20260903060604 | 26 | 102 | 6.4 | 11.3 | 0.00 | 0.00 | 0.00 | 97 | 1014.2 |
| 20260903054740 | 25 | 23 | 1.6 | 3.2 | 0.00 | 0.00 | 0.00 | 99 | 1015.5 |
| 20260903054734 | 24 | 98 | 0.0 | 1.6 | 0.00 | 0.00 | 0.00 | 99 | 1016.2 |
| 20260903054732 | 33 | 98 | 8.0 | 17.7 | 0.00 | 0.84 | 0.00 | 71 | 1017.0 |
| 20260903052934 | 26 | 106 | 8.0 | 14.5 | 0.00 | 0.00 | 0.00 | 97 | 1014.5 |
| 20260903052807 | 26 | 104 | 8.0 | 14.5 | 0.00 | 0.00 | 0.00 | 96 | 1014.6 |
| 20260903052403 | 26 | 104 | 8.0 | 14.5 | 0.00 | 0.00 | 0.00 | 96 | 1014.6 |
| 20260903051646 | 26 | 99 | 8.0 | 14.5 | 0.00 | 0.00 | 0.00 | 96 | 1014.7 |
| 20260903051334 | 26 | 99 | 8.0 | 14.5 | 0.00 | 0.00 | 0.00 | 96 | 1014.7 |
| 20260903050804 | 26 | 100 | 8.0 | 14.5 | 0.00 | 0.00 | 0.00 | 96 | 1014.8 |
| 20260903050234 | 26 | 98 | 9.7 | 14.5 | 0.00 | 0.00 | 0.00 | 96 | 1014.9 |
| 20260903045704 | 26 | 96 | 11.3 | 16.1 | 0.00 | 0.00 | 0.00 | 96 | 1014.9 |
| 20260903044633 | 26 | 102 | 9.7 | 16.1 | 0.00 | 0.00 | 0.00 | 96 | 1015.0 |
| 20260903044134 | 26 | 102 | 9.7 | 16.1 | 0.00 | 0.00 | 0.00 | 96 | 1015.0 |
| 20260903043922 | 26 | 101 | 9.7 | 14.5 | 0.00 | 0.00 | 0.00 | 96 | 1015.1 |
| 20260903043634 | 26 | 101 | 9.7 | 14.5 | 0.00 | 0.00 | 0.00 | 96 | 1015.1 |
| 20260903043134 | 26 | 103 | 9.7 | 16.1 | 0.00 | 0.00 | 0.00 | 96 | 1015.1 |
| 20260903042828 | 26 | 102 | 11.3 | 17.7 | 0.00 | 0.00 | 0.00 | 96 | 1015.1 |
| 20260903042633 | 26 | 102 | 11.3 | 17.7 | 0.00 | 0.00 | 0.00 | 96 | 1015.1 |
| 20260903041035 | 27 | 100 | 8.0 | 14.5 | 0.00 | 0.00 | 0.00 | 95 | 1015.3 |
| 20260903035720 | 27 | 102 | 11.3 | 17.7 | 0.00 | 0.00 | 0.00 | 96 | 1015.1 |
| 20260903035506 | 27 | 102 | 11.3 | 17.7 | 0.00 | 0.00 | 0.00 | 96 | 1015.1 |
| 20260903034711 | 27 | 98 | 12.9 | 17.7 | 0.00 | 0.00 | 0.00 | 95 | 1015.0 |
| 20260903034434 | 27 | 98 | 12.9 | 17.7 | 0.00 | 0.00 | 0.00 | 95 | 1015.0 |
| 20260903033704 | 27 | 92 | 9.7 | 17.7 | 0.00 | 0.00 | 0.00 | 95 | 1015.1 |
| 20260903033334 | 27 | 92 | 9.7 | 17.7 | 0.00 | 0.00 | 0.00 | 95 | 1015.1 |
| 20260903032234 | 26 | 90 | 8.0 | 14.5 | 0.00 | 0.00 | 0.00 | 95 | 1015.3 |
| 20260903031950 | 26 | 94 | 8.0 | 14.5 | 0.00 | 0.00 | 0.00 | 96 | 1015.2 |
| 20260903031704 | 26 | 94 | 8.0 | 14.5 | 0.00 | 0.00 | 0.00 | 96 | 1015.2 |
| 20260903030634 | 26 | 84 | 4.8 | 12.9 | 0.00 | 0.00 | 0.00 | 96 | 1015.2 |
| 20260903030447 | 26 | 83 | 4.8 | 11.3 | 0.00 | 0.00 | 0.00 | 96 | 1015.4 |
| 20260903030134 | 26 | 83 | 4.8 | 11.3 | 0.00 | 0.00 | 0.00 | 96 | 1015.4 |
| 20260903023329 | 26 | 54 | 0.0 | 3.2 | 0.00 | 0.00 | 0.00 | 97 | 1015.3 |
| 20260903023104 | 26 | 54 | 0.0 | 3.2 | 0.00 | 0.00 | 0.00 | 97 | 1015.3 |
| 20260903020434 | 26 | 54 | 1.6 | 3.2 | 0.00 | 0.00 | 0.00 | 97 | 1015.2 |
| 20260903015711 | 26 | 51 | 1.6 | 3.2 | 0.00 | 0.00 | 0.00 | 97 | 1015.3 |
| 20260903015434 | 26 | 51 | 1.6 | 3.2 | 0.00 | 0.00 | 0.00 | 97 | 1015.3 |
| 20260903014713 | 26 | 46 | 1.6 | 3.2 | 0.00 | 0.00 | 0.00 | 96 | 1015.0 |
| 20260903014334 | 26 | 46 | 1.6 | 3.2 | 0.00 | 0.00 | 0.00 | 96 | 1015.0 |
| 20260903014114 | 26 | 46 | 1.6 | 3.2 | 0.00 | 0.00 | 0.00 | 96 | 1014.9 |
| 20260903013834 | 26 | 46 | 1.6 | 3.2 | 0.00 | 0.00 | 0.00 | 96 | 1014.9 |
| 20260903012956 | 26 | 45 | 1.6 | 4.8 | 0.00 | 0.00 | 0.00 | 96 | 1015.0 |
| 20260903012734 | 26 | 45 | 1.6 | 4.8 | 0.00 | 0.00 | 0.00 | 96 | 1015.0 |
| 20260903010922 | 26 | 85 | 1.6 | 1.6 | 0.00 | 0.00 | 0.00 | 94 | 1014.7 |
| 20260903010634 | 26 | 85 | 1.6 | 1.6 | 0.00 | 0.00 | 0.00 | 94 | 1014.7 |
| 20260903005825 | 26 | 66 | 1.6 | 3.2 | 0.00 | 0.00 | 0.00 | 94 | 1014.4 |
| 20260903005605 | 26 | 66 | 1.6 | 3.2 | 0.00 | 0.00 | 0.00 | 94 | 1014.4 |
| 20260903004357 | 26 | 29 | 1.6 | 4.8 | 0.00 | 0.00 | 0.00 | 94 | 1014.2 |
| 20260903003934 | 26 | 29 | 1.6 | 4.8 | 0.00 | 0.00 | 0.00 | 94 | 1014.2 |
| 20260903002834 | 26 | 40 | 1.6 | 4.8 | 0.00 | 0.00 | 0.00 | 94 | 1014.3 |
| 20260903002333 | 26 | 55 | 1.6 | 3.2 | 0.00 | 0.00 | 0.00 | 95 | 1014.3 |
| 20260903001834 | 26 | 74 | 1.6 | 4.8 | 0.00 | 0.00 | 0.00 | 95 | 1014.3 |
| 20260903001334 | 26 | 65 | 1.6 | 4.8 | 0.00 | 0.00 | 0.00 | 95 | 1014.4 |
| 20260903000804 | 26 | 50 | 1.6 | 3.2 | 0.00 | 0.00 | 0.00 | 95 | 1014.4 |
| 20260902233821 | 26 | 45 | 1.6 | 3.2 | 0.00 | 0.00 | 0.00 | 92 | 1014.5 |
| 20260902233634 | 26 | 45 | 1.6 | 3.2 | 0.00 | 0.00 | 0.00 | 92 | 1014.5 |
| 20260902233134 | 26 | 41 | 1.6 | 3.2 | 0.00 | 0.00 | 0.00 | 91 | 1014.4 |
| 20260902231004 | 26 | 51 | 1.6 | 3.2 | 0.00 | 0.00 | 0.00 | 90 | 1014.0 |
| 20260902230433 | 26 | 60 | 0.0 | 1.6 | 0.00 | 0.00 | 0.00 | 90 | 1014.2 |
| 20260902225934 | 26 | 89 | 0.0 | 1.6 | 0.00 | 0.00 | 0.00 | 90 | 1014.1 |
| 20260902224904 | 26 | 90 | 1.6 | 4.8 | 0.00 | 0.00 | 0.00 | 90 | 1013.7 |
| 20260902224628 | 26 | 78 | 1.6 | 3.2 | 0.00 | 0.00 | 0.00 | 90 | 1013.6 |
| 20260902224405 | 26 | 78 | 1.6 | 3.2 | 0.00 | 0.00 | 0.00 | 90 | 1013.6 |
| 20260902223708 | 26 | 44 | 1.6 | 4.8 | 0.00 | 0.00 | 0.00 | 90 | 1014.0 |
| 20260902223334 | 26 | 44 | 1.6 | 4.8 | 0.00 | 0.00 | 0.00 | 90 | 1014.0 |
| 20260902223151 | 26 | 15 | 1.6 | 4.8 | 0.00 | 0.00 | 0.00 | 90 | 1014.3 |
| 20260902222834 | 26 | 15 | 1.6 | 4.8 | 0.00 | 0.00 | 0.00 | 90 | 1014.3 |
| 20260902220805 | 27 | 75 | 3.2 | 11.3 | 0.00 | 0.00 | 0.00 | 92 | 1014.1 |
| 20260902220037 | 27 | 44 | 3.2 | 4.8 | 0.00 | 0.00 | 0.00 | 92 | 1013.9 |
| 20260902215734 | 27 | 44 | 3.2 | 4.8 | 0.00 | 0.00 | 0.00 | 92 | 1013.9 |
| 20260902215234 | 27 | 42 | 3.2 | 4.8 | 0.00 | 0.00 | 0.00 | 92 | 1013.6 |
| 20260902215121 | 27 | 34 | 3.2 | 4.8 | 0.00 | 0.00 | 0.00 | 90 | 1013.7 |
| 20260902214733 | 27 | 34 | 3.2 | 4.8 | 0.00 | 0.00 | 0.00 | 90 | 1013.7 |
| 20260902214234 | 27 | 29 | 3.2 | 8.0 | 0.00 | 0.00 | 0.00 | 90 | 1013.8 |
| 20260902212733 | 27 | 28 | 4.8 | 12.9 | 0.00 | 0.00 | 0.00 | 91 | 1013.3 |
| 20260902212328 | 27 | 33 | 3.2 | 12.9 | 0.00 | 0.00 | 0.00 | 90 | 1013.4 |
| 20260902212203 | 27 | 33 | 3.2 | 12.9 | 0.00 | 0.00 | 0.00 | 90 | 1013.4 |
| 20260902211103 | 27 | 345 | 4.8 | 8.0 | 0.00 | 0.00 | 0.00 | 91 | 1013.9 |
| 20260902205003 | 27 | 331 | 4.8 | 11.3 | 0.00 | 0.00 | 0.00 | 85 | 1014.3 |
| 20260902204700 | 27 | 326 | 6.4 | 12.9 | 0.00 | 0.00 | 0.00 | 85 | 1014.0 |
| 20260902204433 | 27 | 326 | 6.4 | 12.9 | 0.00 | 0.00 | 0.00 | 85 | 1014.0 |
| 20260902203658 | 28 | 352 | 4.8 | 9.7 | 0.00 | 0.00 | 0.00 | 82 | 1013.6 |
| 20260902203334 | 28 | 352 | 4.8 | 9.7 | 0.00 | 0.00 | 0.00 | 82 | 1013.6 |
| 20260902203117 | 29 | 353 | 4.8 | 8.0 | 0.00 | 0.00 | 0.00 | 83 | 1013.9 |
| 20260902202833 | 29 | 353 | 4.8 | 8.0 | 0.00 | 0.00 | 0.00 | 83 | 1013.9 |
| 20260902202333 | 30 | 4 | 4.8 | 14.5 | 0.00 | 0.00 | 0.00 | 83 | 1013.9 |
| 20260902201011 | 31 | 82 | 11.3 | 20.9 | 0.00 | 0.00 | 0.00 | 79 | 1013.6 |
| 20260902200734 | 31 | 82 | 11.3 | 20.9 | 0.00 | 0.00 | 0.00 | 79 | 1013.6 |
| 20260902195633 | 32 | 94 | 9.7 | 25.7 | 0.00 | 0.00 | 0.00 | 75 | 1013.6 |
| 20260902195437 | 33 | 102 | 4.8 | 16.1 | 0.00 | 0.00 | 0.00 | 71 | 1013.6 |
| 20260902195133 | 33 | 102 | 4.8 | 16.1 | 0.00 | 0.00 | 0.00 | 71 | 1013.6 |
| 20260902194826 | 34 | 108 | 3.2 | 9.7 | 0.00 | 0.00 | 0.00 | 71 | 1013.6 |
| 20260902194633 | 34 | 108 | 3.2 | 9.7 | 0.00 | 0.00 | 0.00 | 71 | 1013.6 |
| 20260902194133 | 33 | 94 | 3.2 | 6.4 | 0.00 | 0.00 | 0.00 | 72 | 1013.6 |
| 20260902193816 | 34 | 72 | 1.6 | 4.8 | 0.00 | 0.00 | 0.00 | 69 | 1013.6 |
| 20260902193633 | 34 | 72 | 1.6 | 4.8 | 0.00 | 0.00 | 0.00 | 69 | 1013.6 |
| 20260902193103 | 34 | 69 | 3.2 | 6.4 | 0.00 | 0.00 | 0.00 | 70 | 1013.7 |
| 20260902190003 | 33 | 46 | 3.2 | 6.4 | 0.00 | 0.00 | 0.00 | 72 | 1014.2 |
| 20260902185003 | 33 | 91 | 4.8 | 9.7 | 0.00 | 0.00 | 0.00 | 73 | 1014.4 |
| 20260902184003 | 33 | 3 | 1.6 | 4.8 | 0.00 | 0.00 | 0.00 | 71 | 1014.6 |
| 20260902182933 | 32 | 87 | 3.2 | 6.4 | 0.00 | 0.00 | 0.00 | 75 | 1014.7 |
| 20260902182806 | 32 | 88 | 3.2 | 6.4 | 0.00 | 0.00 | 0.00 | 73 | 1014.8 |
| 20260902182433 | 32 | 88 | 3.2 | 6.4 | 0.00 | 0.00 | 0.00 | 73 | 1014.8 |
| 20260902181403 | 32 | 89 | 3.2 | 9.7 | 0.00 | 0.00 | 0.00 | 76 | 1015.0 |
| 20260902181211 | 31 | 89 | 3.2 | 9.7 | 0.00 | 0.00 | 0.00 | 77 | 1015.0 |
| 20260902180903 | 31 | 89 | 3.2 | 9.7 | 0.00 | 0.00 | 0.00 | 77 | 1015.0 |
| 20260902180333 | 31 | 82 | 3.2 | 6.4 | 0.00 | 0.00 | 0.00 | 77 | 1015.0 |
| 20260902180218 | 31 | 79 | 1.6 | 6.4 | 0.00 | 0.00 | 0.00 | 78 | 1015.1 |
| 20260902175833 | 31 | 79 | 1.6 | 6.4 | 0.00 | 0.00 | 0.00 | 78 | 1015.1 |
| 20260902170003 | 32 | 77 | 3.2 | 11.3 | 0.00 | 0.00 | 0.00 | 75 | 1015.8 |
| 20260902165503 | 32 | 64 | 3.2 | 6.4 | 0.00 | 0.00 | 0.00 | 74 | 1015.8 |
| 20260902165003 | 32 | 55 | 3.2 | 6.4 | 0.00 | 0.00 | 0.00 | 75 | 1015.9 |
| 20260902164503 | 32 | 28 | 3.2 | 6.4 | 0.00 | 0.00 | 0.00 | 76 | 1015.8 |
| 20260902163933 | 32 | 24 | 3.2 | 8.0 | 0.00 | 0.00 | 0.00 | 78 | 1016.0 |
| 20260902163405 | 32 | 45 | 3.2 | 8.0 | 0.00 | 0.00 | 0.00 | 77 | 1016.0 |
| 20260902163300 | 32 | 63 | 3.2 | 8.0 | 0.00 | 0.00 | 0.00 | 80 | 1016.1 |
| 20260902162903 | 32 | 63 | 3.2 | 8.0 | 0.00 | 0.00 | 0.00 | 80 | 1016.1 |
| 20260902161903 | 31 | 79 | 4.8 | 11.3 | 0.00 | 0.00 | 0.00 | 81 | 1016.3 |
| 20260902160903 | 31 | 18 | 3.2 | 8.0 | 0.00 | 0.00 | 0.00 | 81 | 1016.5 |
| 20260902160210 | 31 | 13 | 4.8 | 6.4 | 0.00 | 0.00 | 0.00 | 83 | 1016.5 |
| 20260902155903 | 31 | 13 | 4.8 | 6.4 | 0.00 | 0.00 | 0.00 | 83 | 1016.5 |
| 20260902155404 | 31 | 18 | 3.2 | 6.4 | 0.00 | 0.00 | 0.00 | 82 | 1016.5 |
| 20260902155144 | 30 | 21 | 3.2 | 4.8 | 0.00 | 0.00 | 0.00 | 84 | 1016.6 |
| 20260902154833 | 30 | 21 | 3.2 | 4.8 | 0.00 | 0.00 | 0.00 | 84 | 1016.6 |
| 20260902154333 | 30 | 51 | 3.2 | 4.8 | 0.00 | 0.00 | 0.00 | 81 | 1016.8 |
| 20260902152515 | 31 | 28 | 3.2 | 6.4 | 0.00 | 0.00 | 0.00 | 83 | 1016.9 |
| 20260902152233 | 31 | 28 | 3.2 | 6.4 | 0.00 | 0.00 | 0.00 | 83 | 1016.9 |
| 20260902152015 | 31 | 27 | 3.2 | 6.4 | 0.00 | 0.00 | 0.00 | 83 | 1016.9 |
| 20260902151733 | 31 | 27 | 3.2 | 6.4 | 0.00 | 0.00 | 0.00 | 83 | 1016.9 |
| 20260902145633 | 30 | 24 | 3.2 | 6.4 | 0.00 | 0.00 | 0.00 | 87 | 1016.8 |
| 20260902144633 | 30 | 57 | 3.2 | 6.4 | 0.00 | 0.00 | 0.00 | 87 | 1016.8 |
| 20260902143634 | 28 | 51 | 3.2 | 9.7 | 0.00 | 0.00 | 0.00 | 90 | 1016.6 |
| 20260902141817 | 28 | 49 | 3.2 | 4.8 | 0.00 | 0.00 | 0.00 | 92 | 1016.6 |
| 20260902141604 | 28 | 49 | 3.2 | 4.8 | 0.00 | 0.00 | 0.00 | 92 | 1016.6 |
| 20260902141103 | 28 | 32 | 3.2 | 4.8 | 0.00 | 0.00 | 0.00 | 92 | 1016.7 |
| 20260902140003 | 28 | 70 | 3.2 | 9.7 | 0.00 | 0.00 | 0.00 | 93 | 1016.6 |
| 20260902135759 | 27 | 76 | 3.2 | 9.7 | 0.00 | 0.00 | 0.00 | 93 | 1016.7 |
| 20260902135434 | 27 | 76 | 3.2 | 9.7 | 0.00 | 0.00 | 0.00 | 93 | 1016.7 |
| 20260902135216 | 27 | 62 | 3.2 | 6.4 | 0.00 | 0.00 | 0.00 | 94 | 1016.6 |
| 20260902134933 | 27 | 62 | 3.2 | 6.4 | 0.00 | 0.00 | 0.00 | 94 | 1016.6 |
| 20260902133833 | 27 | 41 | 3.2 | 6.4 | 0.00 | 0.00 | 0.00 | 95 | 1016.6 |
| 20260902133333 | 27 | 38 | 3.2 | 6.4 | 0.00 | 0.00 | 0.00 | 95 | 1016.7 |
| 20260902132834 | 27 | 27 | 3.2 | 4.8 | 0.00 | 0.00 | 0.00 | 95 | 1016.8 |
| 20260902131948 | 27 | 32 | 3.2 | 6.4 | 0.00 | 0.00 | 0.00 | 96 | 1016.7 |
| 20260902131734 | 27 | 32 | 3.2 | 6.4 | 0.00 | 0.00 | 0.00 | 96 | 1016.7 |
| 20260902131235 | 27 | 24 | 3.2 | 4.8 | 0.00 | 0.00 | 0.00 | 97 | 1016.6 |
| 20260902125633 | 26 | 23 | 3.2 | 6.4 | 0.00 | 0.00 | 0.00 | 98 | 1016.6 |
| 20260902125103 | 26 | 29 | 3.2 | 6.4 | 0.00 | 0.00 | 0.00 | 98 | 1016.6 |
| 20260902124604 | 26 | 21 | 3.2 | 6.4 | 0.00 | 0.00 | 0.00 | 98 | 1016.6 |
| 20260902124331 | 26 | 21 | 3.2 | 4.8 | 0.00 | 0.00 | 0.00 | 99 | 1016.6 |
| 20260902124033 | 26 | 21 | 3.2 | 4.8 | 0.00 | 0.00 | 0.00 | 99 | 1016.6 |
| 20260902123533 | 26 | 24 | 3.2 | 4.8 | 0.00 | 0.00 | 0.00 | 99 | 1016.7 |
| 20260902123004 | 26 | 21 | 3.2 | 4.8 | 0.00 | 0.00 | 0.00 | 100 | 1016.8 |
| 20260902122710 | 26 | 18 | 3.2 | 4.8 | 0.00 | 0.00 | 0.00 | 100 | 1016.7 |
| 20260902122433 | 26 | 18 | 3.2 | 4.8 | 0.00 | 0.00 | 0.00 | 100 | 1016.7 |
| 20260902121933 | 25 | 20 | 1.6 | 4.8 | 0.00 | 0.00 | 0.00 | 100 | 1016.7 |
| 20260902121144 | 25 | 14 | 3.2 | 4.8 | 0.00 | 0.00 | 0.00 | 100 | 1016.6 |
| 20260902120905 | 25 | 14 | 3.2 | 4.8 | 0.00 | 0.00 | 0.00 | 100 | 1016.6 |
| 20260902114537 | 25 | 22 | 1.6 | 3.2 | 0.00 | 0.00 | 0.00 | 100 | 1016.4 |
| 20260902114234 | 25 | 22 | 1.6 | 3.2 | 0.00 | 0.00 | 0.00 | 100 | 1016.4 |
| 20260902113953 | 25 | 20 | 1.6 | 3.2 | 0.00 | 0.00 | 0.00 | 100 | 1016.3 |
| 20260902113733 | 25 | 20 | 1.6 | 3.2 | 0.00 | 0.00 | 0.00 | 100 | 1016.3 |